Preview of NWS' New Version of Forecast
This preview is not operational and should not be used for support decisions.

Regional Weather Roundup (RWR)

Issued by National Weather Service (NWS)

                            
000
ASUS42 KTBW 210717
RWRFL 
FLORIDA REGIONAL WEATHER ROUNDUP
NATIONAL WEATHER SERVICE TAMPA BAY RUSKIN FL
200 AM EST THU FEB 21 2019

NOTE: "FAIR" INDICATES FEW OR NO CLOUDS BELOW 12,000 FEET WITH NO
SIGNIFICANT WEATHER AND/OR OBSTRUCTIONS TO VISIBILITY.

FLZ001>010-012>015-112-114-115-210800-
PANHANDLE FLORIDA
  
CITY           SKY/WX    TMP DP  RH WIND       PRES   REMARKS
PENSACOLA      FOG       71  69  93 S9        29.99S VSB 1/2          
PENSACOLA NAS  FOG       67  67 100 S9        29.98F VSB 1/4          
MILTON NAS     FOG       69  69 100 S7        30.00  VSB 1/4          
CRESTVIEW      FOG       70  69  97 S3        30.02S VSB 1/2          
DUKE FIELD     CLOUDY    70  70 100 S8        30.00F FOG              
VALPARAISO     FOG       67  67 100 SE6       30.00S VSB 3/8          
PANAMA CITY    CLOUDY    69  68  96 SE9       30.02F FOG              
TYNDALL AFB    FOG       69  68  98 S13       30.02F VSB 1/8          
APALACHICOLA   FOG       66  65  96 S6        30.05S VSB 1/4          

STATION/POSITION SKY/WX   TEMP    WIND        PRES    WAVE   SWELL
                          AIR SEA DIR/SP/G            HT/PER HT/PER
                          (F)     (DEG/KT/KT) (MB)    (FT/S) (FT/S)
30.1N   87.6W              67     160/  8/ 10   N/A     3/ 7   3/ 7
29.2N   88.2W                     150/  8/ 10 1015.4F   4/ 7   3/ 7
PANAMA CITY BEAC           64 63  120/ 12/ 13 1016.8F
TOWER C                    67     170/ 15/ 15 1017.3F

$$
FLZ011-016>038-118-127-128-134-139-239-210800-
NORTH FLORIDA
  
CITY           SKY/WX    TMP DP  RH WIND       PRES   REMARKS
MARIANNA       CLOUDY    71  71 100 S10       30.02F FOG              
TALLAHASSEE    CLOUDY    70  70 100 SE3       30.06S FOG              
PERRY          FAIR      67  66  97 S3        30.08F FOG              
LIVE OAK       MOCLDY    63  63 100 CALM      30.08F FOG              
CROSS CITY     FOG       63  63  99 CALM      30.09S VSB 1            
LAKE CITY      CLOUDY    64  63  94 CALM      30.10S                  
GAINESVILLE    MOCLDY    68  65  90 CALM      30.12F                  
WILLISTON        N/A    N/A N/A N/A MISG        N/A                   
PALATKA        CLOUDY   N/A N/A N/A CALM      30.10F FOG              
MAYPORT NAS    CLOUDY    69  69 100 S5        30.10S                  
JACKSONVILLE   FOG       68  67  96 SE5       30.09S VSB 1            
JAX NAS        LGT RAIN  71  71 100 S5        30.11S FOG              
JAX CECIL      CLOUDY    70  68  94 CALM      30.10S FOG              
FERNANDINA BEA CLOUDY    68  67  99 SW8       30.10S FOG              
ST AUGUSTINE   CLOUDY    69  68  96 SE5       30.12S FOG              
PALM COAST     FAIR      66  65  97 CALM      30.11F FOG              

STATION/POSITION SKY/WX   TEMP    WIND        PRES    WAVE   SWELL
                          AIR SEA DIR/SP/G            HT/PER HT/PER
                          (F)     (DEG/KT/KT) (MB)    (FT/S) (FT/S)
SHELL POINT      NOT AVBL
KEATON BEACH               68     160/  4/  5 1018.7F
CEDAR KEY                  69     120/  5/  6 1018.9R
FERNANDINA                 69 62  170/  4/  6 1020.0R
30.7N   81.3W                 60                N/A     3/ 9   2/11
MAYPORT                    69 62  200/  3/  5 1019.5R
31.4N   80.9W              62 58  180/ 10/ 12 1018.7F   4/ 9   3/ 9
ST AUGUSTINE               64 61  160/  2/  3 1019.7F

$$
FLZ040-043>046-052-053-057-058-063-144-210800-
INTERIOR CENTRAL FLORIDA
  
CITY           SKY/WX    TMP DP  RH WIND       PRES   REMARKS
OCALA          FAIR      67  66  97 E3        30.10F                  
LEESBURG       FAIR      70  66  87 SE6       30.11F                  
SANFORD        FAIR      70  68  93 S5        30.11F                  
ORLANDO EXEC   FAIR      71  68  90 S5        30.11F                  
ORLANDO INTL   FAIR      68  67  96 S7        30.11F                  
KISSIMMEE      FAIR      70  68  93 S7        30.12F                  
WINTER HAVEN   FAIR      72  67  84 SE3       30.12F                  
LAKELAND       FAIR      68  63  83 SE5       30.11S                  
BARTOW         FAIR      66  66 100 E5        30.11S                  
SEBRING        FAIR      66  65  97 E5        30.11F                  
OKEECHOBEE     FAIR      64  63  94 CALM      30.11S FOG              

$$
FLZ041-047-054-059-064-141-147-210800-
EAST CENTRAL FLORIDA
  
CITY           SKY/WX    TMP DP  RH WIND       PRES   REMARKS
DAYTONA BEACH  FAIR      69  69 100 S3        30.11F                  
DELAND         FAIR      68  68 100 S6        30.11S                  
JFK SPACE CTR  FAIR     N/A N/A N/A S3        30.12F                  
CAPE CANAVERAL FAIR      68  66  94 S6        30.10F                  
PATRICK AFB    FAIR      69  69 100 S10       30.11F                  
MELBOURNE      FAIR      72  68  87 SE8       30.11F                  
VERO BEACH     FAIR      72  69  90 SE7       30.12S                  
FT PIERCE      CLOUDY    71  68  90 CALM      30.12S                  
STUART         CLOUDY    73  70  88 SE5       30.12F                  

STATION/POSITION SKY/WX   TEMP    WIND        PRES    WAVE   SWELL
                          AIR SEA DIR/SP/G            HT/PER HT/PER
                          (F)     (DEG/KT/KT) (MB)    (FT/S) (FT/S)
28.5N   80.2W              69     150/  8/ 10 1020.3
28.9N   78.5W              76 78  150/ 17/ 19 1021.7F   8/ 8   3/12
TRIDENT PIER               68 69  150/  7/  9 1020.9F
28.4N   80.5W                 67                N/A     3/ 9

$$
FLZ050-056-061-142-242-148-248-149-249-151-251-155-255-
160-260-210800-
WEST CENTRAL FLORIDA
  
CITY           SKY/WX    TMP DP  RH WIND       PRES   REMARKS
CRYSTAL RIVER  FAIR      70  66  88 CALM      30.09F                  
INVERNESS      FAIR      68  68 100 CALM      30.10F                  
BROOKSVILLE    FAIR      66  65  96 CALM      30.10F                  
CLEARWATER AIR MOCLDY    72  68  88 SE3       30.09S                  
ST PETE CLEARW MOCLDY    71  67  87 SE7       30.09S                  
TAMPA INTL     FAIR      73  67  81 SE3       30.10S                  
TAMPA EXEC     FAIR      64  64 100 CALM      30.11S                  
PLANT CITY     FAIR      70  66  88 SE3       30.12F                  
MACDILL AFB    FAIR      70  66  88 E5        30.09S                  
PETER O KNIGHT MOCLDY    70  70 100 CALM      30.10S                  
ST PETERSBURG  FAIR      72  68  87 SE5       30.08S                  
SARASOTA       FAIR      70  67  90 SE5       30.07F                  
VENICE         FAIR      70  70 100 SE5       30.09F                  

STATION/POSITION SKY/WX   TEMP    WIND        PRES    WAVE   SWELL
                          AIR SEA DIR/SP/G            HT/PER HT/PER
                          (F)     (DEG/KT/KT) (MB)    (FT/S) (FT/S)
27.3N   84.2W                 72                N/A     3/ 7
CLEARWATER BEACH           73 71  140/  5/  7 1018.9F
MIDDLE TAMPA BAY           71     140/  3/  4 1019.2S
VENICE                     71 70  120/  4/  5   N/A

$$
FLZ066-069-070-075>078-162-262-165-265-210800-
SOUTHWEST FLORIDA AND KEYS
  
CITY           SKY/WX    TMP DP  RH WIND       PRES   REMARKS
PUNTA GORDA    FAIR      67  64  90 SE5       30.10F                  
FT MYERS       FAIR      67  66  97 E3        30.08F                  
SOUTHWEST INTL FAIR      68  66  93 NE3       30.09F                  
NAPLES         FAIR      70  68  93 E6        30.08F                  
MARCO ISLAND   FAIR     N/A N/A N/A E6        30.10S                  
IMMOKALEE      MOCLDY    66  64  94 E3        30.08S                  
MARATHON       FAIR      80  72  76 SE14G22   30.06F                  
KEY WEST NAS   FAIR      79  72  79 SE14      30.06F                  
KEY WEST INTL  FAIR      79  72  79 SE15      30.07F                  

STATION/POSITION SKY/WX   TEMP    WIND        PRES    WAVE   SWELL
                          AIR SEA DIR/SP/G            HT/PER HT/PER
                          (F)     (DEG/KT/KT) (MB)    (FT/S) (FT/S)
NAPLES                     72 74   80/  3/  5 1018.7F
26.0N   85.6W              78 79  130/ 14/ 17 1016.7
DRY TORTUGAS               77     110/ 11/ 13 1017.5F
SAND KEY                   78                 1017.8F
SOMBRERO KEY               78                 1017.4F
LONG KEY                   78 78  120/ 17/ 20 1017.8F
MOLASSES REEF              78 78  110/ 13/ 18 1018.7F

$$
FLZ067-068-071>074-168-172>174-210800-
SOUTHEAST FLORIDA 
  
CITY           SKY/WX    TMP DP  RH WIND       PRES   REMARKS
W PALM BEACH   FAIR      76  69  79 SE14      30.11F                  
FT LAUDER-EXEC FAIR      77  72  84 SE10      30.09F                  
FT LAUDERDALE  FAIR      77  73  87 SE15      30.08F                  
POMPANO BEACH  FAIR      77  71  82 SE16      30.09F                  
PEMBROKE PINES FAIR      76  69  79 SE9       30.10F                  
OPA LOCKA      FAIR      76  70  82 SE10      30.09F                  
MIAMI          FAIR      76  72  87 E12       30.09F                  
WEST KENDALL   FAIR      76  72  87 SE7       30.08F                  
HOMESTEAD      MOCLDY    76  71  85 E7        30.08S                  

STATION/POSITION SKY/WX   TEMP    WIND        PRES    WAVE   SWELL
                          AIR SEA DIR/SP/G            HT/PER HT/PER
                          (F)     (DEG/KT/KT) (MB)    (FT/S) (FT/S)
PORT EVERGLADES            78     130/  8/ 14 1018.9
VIRGINIA KEY               78 79  100/ 12/ 15 1018.2F
LAKE WORTH                 77 78  140/ 16/ 19 1020.5F
FOWEY ROCKS                77 78  120/ 21/ 23 1019.1F
SETTLEMENT POINT           75     130/ 10/ 12 1020.1F

$$